Weather History for Kars, Turkey

Change the Weather History Date:

Sunday, February 23, 2014

  Actual Average Record
Temperature  
Mean Temperature 22 °F -  
Max Temperature 35 °F 34 °F - ()
Min Temperature 10 °F 15 °F - ()
Degree Days  
Heating Degree Days 42    
Moisture  
Dew Point 20 °F    
Average Humidity 87    
Maximum Humidity 100    
Minimum Humidity 56    
Precipitation  
Precipitation 0.00 in 0.03 in - ()
Sea Level Pressure  
Sea Level Pressure 30.15 in    
Wind  
Wind Speed 1 mph ()    
Max Wind Speed 9 mph    
Max Gust Speed -    
Visibility 6.1 miles    
Events      
T = Trace of Precipitation, MM = Missing Value Source: Averaged Metar Reports

Daily Weather History Graph

Daily Weather History Graph

Search for Another Location

Airport:

Trip Planner

Search our weather history database for the weather conditions in past years. The results will help you decide how hot, cold, wet, or windy it might be!

Date:

Astronomy

Feb. 23, 2014 Rise Set
Actual Time 5:50 AM EET 4:51 PM EET
Civil Twilight 5:23 AM EET 5:19 PM EET
Nautical Twilight 4:51 AM EET 5:51 PM EET
Astronomical Twilight 4:19 AM EET 6:22 PM EET
Moon 12:26 AM EET (2/23) 10:33 AM EET (2/23)
Length of Visible Light 11h 56m
Length of Day
11h 00m
Last Quarter, 42% of the Moon is Illuminated
Feb 23
Last Quarter
Mar 1
New
Mar 8
First Quarter
Mar 16
Full
Mar 24
Last Quarter

Hourly Weather History & Observations

Time (EET) Temp. Windchill Dew Point Humidity Pressure Visibility Wind Dir Wind Speed Gust Speed Precip Events Conditions
12:50 AM 21.2 °F - 17.6 °F 86% 30.06 in - Calm Calm - N/A   Clear
1:50 AM 19.4 °F - 17.6 °F 93% 30.06 in - Calm Calm - N/A   Clear
2:00 AM 20 °F - 19 °F 94%  in 6 mi Calm Calm - -  
2:50 AM 15.8 °F - 14.0 °F 93% 30.06 in - Calm Calm - N/A   Clear
3:50 AM 14.0 °F - 12.2 °F 93% 30.09 in - Calm Calm - N/A   Clear
4:50 AM 15.8 °F - 14.0 °F 93% 30.09 in - Calm Calm - N/A   Clear
5:00 AM 15 °F - 15 °F 100%  in 6 mi Calm Calm - -  
5:50 AM 12.2 °F - 10.4 °F 92% 30.09 in 6.2 mi WNW 2.3 mph - N/A   Partly Cloudy
6:50 AM 15.8 °F - 14.0 °F 93% 30.12 in 6.2 mi NNE 2.3 mph - N/A   Partly Cloudy
7:50 AM 19.4 °F - 17.6 °F 93% 30.15 in 6.2 mi NNW 2.3 mph - N/A   Partly Cloudy
8:00 AM 19 °F - 19 °F 98%  in 6 mi NNW 2.3 mph - -   Scattered Clouds
8:50 AM 23.0 °F - 17.6 °F 80% 30.15 in 6.2 mi Calm Calm - N/A   Partly Cloudy
9:50 AM 28.4 °F - 21.2 °F 74% 30.15 in 6.2 mi Calm Calm - N/A   Partly Cloudy
10:50 AM 32.0 °F - 23.0 °F 69% 30.18 in 6.2 mi Calm Calm - N/A   Partly Cloudy
11:00 AM 32 °F - 22 °F 56%  in 6 mi Calm Calm - -   Scattered Clouds
11:50 AM 33.8 °F - 23.0 °F 65% 30.15 in 6.2 mi Calm Calm - N/A   Partly Cloudy
12:50 PM 32.0 °F 26.4 °F 24.8 °F 75% 30.15 in - ENE 5.8 mph - N/A   Clear
1:50 PM 32.0 °F 24.2 °F 26.6 °F 80% 30.15 in - NNE 9.2 mph - N/A   Clear
2:00 PM 33 °F - 25 °F 62%  in 6 mi NNE 9.2 mph - -  
2:50 PM 32.0 °F 24.8 °F 26.6 °F 80% 30.15 in - NNE 8.1 mph - N/A   Clear
3:50 PM 32.0 °F 25.6 °F 26.6 °F 80% 30.15 in - NNE 6.9 mph - N/A   Clear
4:50 PM 28.4 °F 24.6 °F 24.8 °F 86% 30.18 in - NNE 3.5 mph - N/A   Clear
5:00 PM 28 °F - 24 °F 77%  in 6 mi NNE 3.5 mph - -  
5:50 PM 26.6 °F - 23.0 °F 86% 30.18 in - Calm Calm - N/A   Clear
6:50 PM 26.6 °F - 24.8 °F 93% 30.21 in - Calm Calm - N/A   Clear
7:50 PM 23.0 °F - 21.2 °F 93% 30.21 in - Calm Calm - N/A   Clear
8:00 PM 22 °F - 22 °F 100%  in 6 mi Calm Calm - -  
8:50 PM 21.2 °F - 21.2 °F 100% 30.21 in - Calm Calm - N/A   Clear
9:50 PM 21.2 °F - 21.2 °F 100% 30.21 in - Calm Calm - N/A   Clear
10:50 PM 15.8 °F - 15.8 °F 100% 30.24 in - Calm Calm - N/A   Clear
11:00 PM - - - %  in 6 mi Calm Calm - -  
11:50 PM 15.8 °F - 15.8 °F 100% 30.24 in - Calm Calm - N/A   Clear